Weather History for McAllen, TX

Change the Weather History Date:

Friday, February 7, 2014

  Actual Average Record
Temperature  
Mean Temperature 37 °F 63 °F  
Max Temperature 40 °F 74 °F 88 °F (1948)
Min Temperature 33 °F 53 °F 30 °F (1926)
Degree Days  
Heating Degree Days 28 5  
Month to date heating degree days 96 35  
Since 1 July heating degree days 697 462  
Cooling Degree Days 0 3  
Month to date cooling degree days 8 19  
Year to date cooling degree days 24 81  
Moisture  
Dew Point 35 °F    
Average Humidity 88    
Maximum Humidity 100    
Minimum Humidity 75    
Precipitation  
Precipitation T in 0.04 in 0.64 in (2012)
Month to date precipitation 0.02 0.31  
Year to date precipitation 0.68 1.36  
Sea Level Pressure  
Sea Level Pressure 30.26 in    
Wind  
Wind Speed 10 mph (NNW)    
Max Wind Speed 16 mph    
Max Gust Speed 18 mph    
Visibility 5 miles    
Events Rain    
T = Trace of Precipitation, MM = Missing Value Source: NWS Daily Summary

Daily Weather History Graph

Daily Weather History Graph

Search for Another Location

Airport:

Trip Planner

Search our weather history database for the weather conditions in past years. The results will help you decide how hot, cold, wet, or windy it might be!

Date:

Astronomy

Feb. 07, 2014 Rise Set
Actual Time 7:13 AM CST 6:20 PM CST
Civil Twilight 6:50 AM CST 6:44 PM CST
Nautical Twilight 6:22 AM CST 7:11 PM CST
Astronomical Twilight 5:55 AM CST 7:38 PM CST
Moon 12:38 PM CST (2/7) 1:26 AM CST (2/7)
Length of Visible Light 11h 54m
Length of Day
11h 06m
First Quarter, 59% of the Moon is Illuminated
Feb 7
First Quarter
Feb 14
Full
Feb 22
Last Quarter
Mar 1
New
Mar 8
First Quarter

Hourly Weather History & Observations

Time (CST) Temp. Windchill Dew Point Humidity Pressure Visibility Wind Dir Wind Speed Gust Speed Precip Events Conditions
12:50 AM 35.6 °F 28.0 °F 28.4 °F 75% 30.32 in 10.0 mi NNW 10.4 mph - N/A   Overcast
12:53 AM 36.0 °F 28.5 °F 28.9 °F 76% 30.32 in 10.0 mi NNW 10.4 mph - N/A   Overcast
1:53 AM 35.1 °F 27.9 °F 30.9 °F 85% 30.32 in 9.0 mi NW 9.2 mph - 0.00 in   Overcast
2:49 AM 33.8 °F 27.0 °F 32.0 °F 93% 30.30 in 5.0 mi NNW 8.1 mph - 0.00 in Rain Light Rain
2:53 AM 34.0 °F 26.6 °F 32.0 °F 92% 30.30 in 5.0 mi NNW 9.2 mph - 0.00 in Rain Light Rain
3:53 AM 34.0 °F 26.6 °F 32.0 °F 92% 30.29 in 5.0 mi NNW 9.2 mph - 0.00 in Rain Light Rain
4:53 AM 34.0 °F 26.0 °F 32.0 °F 92% 30.28 in 5.0 mi NNW 10.4 mph - 0.00 in Rain Light Rain
5:53 AM 33.1 °F 24.9 °F 32.0 °F 96% 30.27 in 4.0 mi NNW 10.4 mph - 0.00 in Rain Light Rain
6:53 AM 33.1 °F 24.4 °F 32.0 °F 96% 30.27 in 4.0 mi North 11.5 mph - 0.00 in Rain Light Rain
7:46 AM 33.8 °F 25.8 °F 32.0 °F 93% 30.28 in 2.5 mi NNW 10.4 mph - 0.00 in Rain Light Rain
7:53 AM 34.0 °F 25.5 °F 32.0 °F 92% 30.28 in 2.0 mi NNW 11.5 mph - 0.00 in Rain Light Rain
8:53 AM 34.0 °F 26.0 °F 33.1 °F 96% 30.27 in 2.5 mi North 10.4 mph - 0.00 in Rain Light Rain
9:00 AM 33.8 °F 25.8 °F 33.8 °F 100% 30.26 in 3.0 mi North 10.4 mph - 0.00 in Rain Light Rain
9:38 AM 35.6 °F 27.1 °F 33.8 °F 93% 30.27 in 2.5 mi NNW 12.7 mph - 0.00 in   Overcast
9:53 AM 35.1 °F 27.4 °F 33.1 °F 92% 30.29 in 2.5 mi NNW 10.4 mph - 0.00 in   Overcast
10:53 AM 36.0 °F 29.0 °F 34.0 °F 93% 30.29 in 2.5 mi North 9.2 mph - 0.00 in Rain Light Rain
11:30 AM 35.6 °F 28.6 °F 35.6 °F 100% 30.27 in 3.0 mi NNW 9.2 mph - 0.00 in Rain Light Rain
11:53 AM 36.0 °F 28.0 °F 35.1 °F 97% 30.27 in 3.0 mi NNW 11.5 mph - 0.00 in Rain Light Rain
12:08 PM 37.4 °F 29.3 °F 35.6 °F 93% 30.26 in 2.5 mi North 12.7 mph - 0.00 in Rain Light Rain
12:33 PM 37.4 °F 30.8 °F 35.6 °F 93% 30.25 in 3.0 mi NNW 9.2 mph - 0.00 in Rain Light Rain
12:53 PM 37.0 °F 28.9 °F 36.0 °F 96% 30.24 in 4.0 mi NNW 12.7 mph - 0.00 in Rain Light Rain
1:32 PM 37.4 °F 28.9 °F 35.6 °F 93% 30.22 in 2.5 mi NNW 13.8 mph - 0.00 in Rain Light Rain
1:39 PM 37.4 °F 29.8 °F 35.6 °F 93% 30.22 in 3.0 mi NNW 11.5 mph - 0.00 in Rain Light Rain
1:53 PM 37.9 °F 30.5 °F 36.0 °F 93% 30.22 in 3.0 mi NNW 11.5 mph - 0.00 in Rain Light Rain
2:53 PM 37.9 °F 30.0 °F 37.0 °F 97% 30.20 in 3.0 mi NNW 12.7 mph - 0.00 in Rain Light Rain
3:09 PM 37.4 °F 29.3 °F 37.4 °F 100% 30.20 in 2.0 mi NNW 12.7 mph - 0.00 in Rain Light Rain
3:37 PM 37.4 °F 29.8 °F 37.4 °F 100% 30.20 in 3.0 mi NNW 11.5 mph - 0.00 in Rain Light Rain
3:53 PM 37.9 °F 30.0 °F 37.0 °F 97% 30.21 in 5.0 mi North 12.7 mph - 0.00 in   Overcast
4:53 PM 37.9 °F 30.5 °F 37.0 °F 97% 30.22 in 5.0 mi NNW 11.5 mph - N/A   Overcast
5:53 PM 37.9 °F 32.1 °F 37.0 °F 97% 30.24 in 5.0 mi NNW 8.1 mph - N/A   Overcast
6:53 PM 37.9 °F 31.5 °F 37.0 °F 97% 30.25 in 5.0 mi NNW 9.2 mph - 0.00 in Rain Light Rain
7:53 PM 37.9 °F 32.1 °F 37.0 °F 97% 30.26 in 6.0 mi NNW 8.1 mph - 0.00 in   Overcast
8:53 PM 37.9 °F 32.7 °F 37.0 °F 97% 30.27 in 7.0 mi NNW 6.9 mph - N/A   Overcast
9:53 PM 39.0 °F 33.4 °F 37.0 °F 93% 30.25 in 10.0 mi NW 8.1 mph - N/A   Overcast
10:40 PM 39.2 °F 35.9 °F 37.4 °F 93% 30.25 in 10.0 mi NNW 4.6 mph - N/A   Overcast
10:53 PM 39.0 °F 35.7 °F 37.9 °F 96% 30.26 in 10.0 mi NNW 4.6 mph - N/A   Overcast
11:53 PM 39.9 °F 35.8 °F 37.9 °F 93% 30.25 in 10.0 mi NW 5.8 mph - N/A   Overcast
11:57 PM 39.2 °F 34.2 °F 37.4 °F 93% 30.25 in 10.0 mi NW 6.9 mph - N/A   Overcast